| time (UTC) | temp F | wind direction | speed MPH | gust MPH | rain 1hr in | rain 24hr in | rain mn in | humidity % | barometer mb |
| 20260503041050 | 55 | 302 | 8.0 | 10.0 | 0.00 | 0.00 | 0.00 | 89 | 1013.6 |
| 20260503040549 | 55 | 312 | 6.0 | 9.0 | 0.00 | 0.00 | 0.00 | 89 | 1013.5 |
| 20260503040050 | 55 | 309 | 5.0 | 9.0 | 0.00 | 0.00 | 0.00 | 89 | 1013.5 |
| 20260503035549 | 55 | 303 | 4.0 | 6.0 | 0.00 | 0.00 | 0.00 | 88 | 1013.5 |
| 20260503035050 | 56 | 305 | 4.0 | 6.0 | 0.00 | 0.00 | 0.00 | 88 | 1013.4 |
| 20260503034550 | 56 | 338 | 1.0 | 2.0 | 0.00 | 0.00 | 0.00 | 88 | 1013.4 |
| 20260503034309 | 56 | 251 | 0.0 | 2.0 | 0.00 | 0.00 | 0.00 | 88 | 1013.4 |
| 20260503034027 | 56 | 251 | 1.0 | 2.0 | 0.00 | 0.00 | 0.00 | 88 | 1013.3 |
| 20260503033049 | 56 | 203 | 0.0 | 1.0 | 0.00 | 0.00 | 0.00 | 87 | 1013.3 |
| 20260503032549 | 56 | 202 | 0.0 | 0.0 | 0.00 | 0.00 | 0.00 | 87 | 1013.2 |
| 20260503032311 | 56 | 203 | 0.0 | 2.0 | 0.00 | 0.00 | 0.00 | 87 | 1013.2 |
| 20260503031549 | 56 | 203 | 0.0 | 2.0 | 0.00 | 0.00 | 0.00 | 87 | 1013.2 |
| 20260503031050 | 56 | 212 | 0.0 | 4.0 | 0.00 | 0.00 | 0.00 | 87 | 1013.3 |
| 20260503030549 | 56 | 212 | 1.0 | 5.0 | 0.00 | 0.00 | 0.00 | 87 | 1013.2 |
| 20260503030306 | 56 | 216 | 3.0 | 5.0 | 0.00 | 0.00 | 0.00 | 87 | 1013.2 |
| 20260503025548 | 56 | 212 | 2.0 | 5.0 | 0.00 | 0.00 | 0.00 | 87 | 1013.2 |
| 20260503025048 | 56 | 210 | 3.0 | 5.0 | 0.00 | 0.00 | 0.00 | 86 | 1013.2 |
| 20260503024548 | 56 | 213 | 4.0 | 5.0 | 0.00 | 0.00 | 0.00 | 86 | 1013.1 |
| 20260503024308 | 57 | 216 | 4.0 | 7.0 | 0.00 | 0.00 | 0.00 | 85 | 1013.2 |
| 20260503023548 | 57 | 221 | 5.0 | 7.0 | 0.00 | 0.00 | 0.00 | 85 | 1013.2 |
| 20260503023048 | 58 | 206 | 4.0 | 9.0 | 0.00 | 0.00 | 0.00 | 85 | 1013.2 |
| 20260503022549 | 58 | 196 | 5.0 | 9.0 | 0.00 | 0.00 | 0.00 | 84 | 1013.3 |
| 20260503022050 | 58 | 204 | 5.0 | 7.0 | 0.00 | 0.00 | 0.00 | 84 | 1013.3 |
| 20260503021543 | 59 | 197 | 5.0 | 9.0 | 0.00 | 0.00 | 0.00 | 83 | 1013.2 |
| 20260503021033 | 59 | 204 | 5.0 | 9.0 | 0.00 | 0.00 | 0.00 | 83 | 1013.2 |
| 20260503020532 | 59 | 197 | 5.0 | 9.0 | 0.00 | 0.00 | 0.00 | 83 | 1013.3 |
| 20260503020032 | 59 | 188 | 6.0 | 10.0 | 0.00 | 0.00 | 0.00 | 82 | 1013.2 |
| 20260503015531 | 60 | 180 | 6.0 | 10.0 | 0.00 | 0.00 | 0.00 | 81 | 1013.3 |
| 20260503015022 | 60 | 183 | 5.0 | 10.0 | 0.00 | 0.00 | 0.00 | 82 | 1013.3 |
| 20260503014512 | 60 | 134 | 5.0 | 10.0 | 0.00 | 0.00 | 0.00 | 81 | 1013.4 |
| 20260503014013 | 60 | 164 | 4.0 | 9.0 | 0.00 | 0.00 | 0.00 | 81 | 1013.4 |
| 20260503013503 | 61 | 161 | 4.0 | 9.0 | 0.00 | 0.00 | 0.00 | 81 | 1013.4 |
| 20260503013003 | 61 | 178 | 5.0 | 7.0 | 0.00 | 0.00 | 0.00 | 81 | 1013.5 |
| 20260503012503 | 61 | 169 | 4.0 | 7.0 | 0.00 | 0.00 | 0.00 | 81 | 1013.6 |
| 20260503012003 | 61 | 169 | 6.0 | 9.0 | 0.00 | 0.00 | 0.00 | 80 | 1013.6 |
| 20260503011503 | 62 | 152 | 5.0 | 9.0 | 0.00 | 0.00 | 0.00 | 79 | 1013.7 |
| 20260503011224 | 62 | 164 | 5.0 | 7.0 | 0.00 | 0.00 | 0.00 | 79 | 1013.7 |
| 20260503010502 | 62 | 180 | 5.0 | 7.0 | 0.00 | 0.00 | 0.00 | 79 | 1013.8 |
| 20260503010003 | 62 | 162 | 4.0 | 7.0 | 0.00 | 0.00 | 0.00 | 79 | 1013.9 |
| 20260503005502 | 63 | 161 | 4.0 | 9.0 | 0.00 | 0.00 | 0.00 | 78 | 1013.9 |
| 20260503005003 | 64 | 168 | 4.0 | 9.0 | 0.00 | 0.00 | 0.00 | 77 | 1013.9 |
| 20260503004500 | 64 | 162 | 4.0 | 7.0 | 0.00 | 0.00 | 0.00 | 76 | 1014.0 |
| 20260503004217 | 65 | 149 | 4.0 | 7.0 | 0.00 | 0.00 | 0.00 | 76 | 1014.0 |
| 20260503003455 | 65 | 152 | 4.0 | 7.0 | 0.00 | 0.00 | 0.00 | 75 | 1013.9 |
| 20260503003214 | 66 | 172 | 5.0 | 7.0 | 0.00 | 0.00 | 0.00 | 74 | 1013.9 |
| 20260503002450 | 66 | 144 | 5.0 | 7.0 | 0.00 | 0.00 | 0.00 | 74 | 1013.9 |
| 20260503002216 | 66 | 165 | 2.0 | 5.0 | 0.00 | 0.00 | 0.00 | 74 | 1013.9 |
| 20260503001446 | 67 | 175 | 3.0 | 5.0 | 0.00 | 0.00 | 0.00 | 74 | 1014.0 |
| 20260503000946 | 67 | 148 | 4.0 | 5.0 | 0.00 | 0.00 | 0.00 | 73 | 1014.0 |
| 20260503000446 | 67 | 111 | 1.0 | 5.0 | 0.00 | 0.00 | 0.00 | 73 | 1014.0 |
| 20260502235947 | 67 | 161 | 4.0 | 5.0 | 0.00 | 0.00 | 0.00 | 73 | 1014.0 |
| 20260502235445 | 67 | 135 | 2.0 | 6.0 | 0.00 | 0.00 | 0.00 | 73 | 1014.1 |
| 20260502234947 | 68 | 137 | 3.0 | 6.0 | 0.00 | 0.00 | 0.00 | 73 | 1014.1 |
| 20260502234445 | 68 | 133 | 2.0 | 6.0 | 0.00 | 0.00 | 0.00 | 73 | 1014.0 |
| 20260502234437 | 68 | 141 | 3.0 | 5.0 | 0.00 | 0.00 | 0.00 | 73 | 1013.9 |
| 20260502233445 | 68 | 140 | 2.0 | 6.0 | 0.00 | 0.00 | 0.00 | 72 | 1013.9 |
| 20260502232946 | 68 | 137 | 3.0 | 6.0 | 0.00 | 0.00 | 0.00 | 73 | 1014.0 |
| 20260502232445 | 68 | 117 | 2.0 | 5.0 | 0.00 | 0.00 | 0.00 | 73 | 1014.1 |
| 20260502231945 | 68 | 123 | 2.0 | 5.0 | 0.00 | 0.00 | 0.00 | 74 | 1014.1 |
| 20260502231703 | 67 | 134 | 3.0 | 5.0 | 0.00 | 0.00 | 0.00 | 75 | 1014.1 |
| 20260502231208 | 67 | 110 | 2.0 | 5.0 | 0.00 | 0.00 | 0.00 | 76 | 1014.3 |
| 20260502230445 | 67 | 100 | 2.0 | 5.0 | 0.00 | 0.00 | 0.00 | 77 | 1014.3 |
| 20260502230207 | 66 | 106 | 2.0 | 5.0 | 0.00 | 0.00 | 0.00 | 78 | 1014.4 |
| 20260502225441 | 65 | 107 | 2.0 | 6.0 | 0.00 | 0.00 | 0.00 | 79 | 1014.6 |
| 20260502225204 | 65 | 127 | 1.0 | 6.0 | 0.00 | 0.00 | 0.00 | 79 | 1014.7 |
| 20260502224702 | 65 | 137 | 2.0 | 4.0 | 0.00 | 0.00 | 0.00 | 80 | 1014.7 |
| 20260502223939 | 64 | 118 | 2.0 | 4.0 | 0.00 | 0.00 | 0.00 | 80 | 1014.9 |
| 20260502223439 | 64 | 142 | 2.0 | 5.0 | 0.00 | 0.00 | 0.00 | 81 | 1015.0 |
| 20260502222937 | 64 | 110 | 2.0 | 5.0 | 0.00 | 0.00 | 0.00 | 81 | 1015.1 |
| 20260502222431 | 64 | 142 | 2.0 | 5.0 | 0.00 | 0.00 | 0.00 | 81 | 1015.1 |
| 20260502221933 | 63 | 123 | 2.0 | 6.0 | 0.00 | 0.00 | 0.00 | 81 | 1015.1 |
| 20260502221432 | 63 | 94 | 2.0 | 6.0 | 0.00 | 0.00 | 0.00 | 82 | 1015.2 |
| 20260502220931 | 63 | 117 | 2.0 | 4.0 | 0.00 | 0.00 | 0.00 | 82 | 1015.3 |
| 20260502220431 | 63 | 127 | 0.0 | 4.0 | 0.00 | 0.00 | 0.00 | 83 | 1015.4 |
| 20260502215926 | 63 | 128 | 1.0 | 4.0 | 0.00 | 0.00 | 0.00 | 84 | 1015.5 |
| 20260502215426 | 63 | 104 | 1.0 | 3.0 | 0.00 | 0.00 | 0.00 | 85 | 1015.5 |
| 20260502214923 | 62 | 103 | 1.0 | 3.0 | 0.00 | 0.00 | 0.00 | 85 | 1015.6 |
| 20260502214423 | 62 | 118 | 1.0 | 3.0 | 0.00 | 0.00 | 0.00 | 86 | 1015.6 |
| 20260502213921 | 62 | 117 | 1.0 | 4.0 | 0.00 | 0.00 | 0.00 | 87 | 1015.7 |
| 20260502213421 | 62 | 128 | 1.0 | 4.0 | 0.00 | 0.00 | 0.00 | 87 | 1015.9 |
| 20260502212922 | 62 | 120 | 1.0 | 3.0 | 0.00 | 0.00 | 0.00 | 88 | 1016.0 |
| 20260502212421 | 61 | 116 | 0.0 | 3.0 | 0.00 | 0.00 | 0.00 | 88 | 1016.1 |
| 20260502211909 | 61 | 120 | 1.0 | 4.0 | 0.00 | 0.00 | 0.00 | 89 | 1016.2 |
| 20260502211622 | 61 | 103 | 1.0 | 4.0 | 0.00 | 0.00 | 0.00 | 90 | 1016.3 |
| 20260502210905 | 61 | 111 | 1.0 | 3.0 | 0.00 | 0.00 | 0.00 | 90 | 1016.4 |
| 20260502210403 | 61 | 141 | 1.0 | 5.0 | 0.00 | 0.00 | 0.00 | 91 | 1016.4 |
| 20260502205902 | 61 | 142 | 1.0 | 5.0 | 0.00 | 0.00 | 0.00 | 91 | 1016.4 |
| 20260502205403 | 61 | 128 | 2.0 | 3.0 | 0.00 | 0.00 | 0.00 | 92 | 1016.5 |
| 20260502204903 | 60 | 130 | 0.0 | 3.0 | 0.00 | 0.00 | 0.00 | 93 | 1016.5 |
| 20260502204403 | 60 | 130 | 2.0 | 3.0 | 0.00 | 0.00 | 0.00 | 93 | 1016.6 |
| 20260502203903 | 60 | 123 | 1.0 | 4.0 | 0.00 | 0.00 | 0.00 | 94 | 1016.6 |
| 20260502203403 | 60 | 127 | 1.0 | 4.0 | 0.00 | 0.00 | 0.00 | 94 | 1016.6 |
| 20260502202902 | 59 | 109 | 2.0 | 4.0 | 0.00 | 0.00 | 0.00 | 94 | 1016.6 |
| 20260502202848 | 59 | 131 | 2.0 | 4.0 | 0.00 | 0.00 | 0.00 | 95 | 1016.6 |
| 20260502201843 | 59 | 125 | 1.0 | 5.0 | 0.00 | 0.00 | 0.00 | 95 | 1016.6 |
| 20260502201604 | 59 | 134 | 2.0 | 5.0 | 0.00 | 0.00 | 0.00 | 95 | 1016.6 |
| 20260502200841 | 59 | 116 | 2.0 | 3.0 | 0.00 | 0.00 | 0.00 | 95 | 1016.6 |
| 20260502200341 | 59 | 117 | 0.0 | 2.0 | 0.00 | 0.00 | 0.00 | 96 | 1016.6 |
| 20260502200326 | 58 | 117 | 0.0 | 3.0 | 0.00 | 0.00 | 0.00 | 96 | 1016.6 |
| 20260502195341 | 58 | 117 | 1.0 | 3.0 | 0.00 | 0.00 | 0.00 | 96 | 1016.8 |
| 20260502194842 | 58 | 116 | 0.0 | 1.0 | 0.00 | 0.00 | 0.00 | 96 | 1016.8 |
| 20260502194339 | 58 | 116 | 0.0 | 2.0 | 0.00 | 0.00 | 0.00 | 96 | 1016.9 |
| 20260502193841 | 58 | 116 | 1.0 | 2.0 | 0.00 | 0.00 | 0.00 | 96 | 1017.0 |
| 20260502193338 | 58 | 116 | 0.0 | 2.0 | 0.00 | 0.00 | 0.00 | 96 | 1017.1 |
| 20260502192839 | 58 | 116 | 1.0 | 3.0 | 0.00 | 0.00 | 0.00 | 96 | 1017.0 |
| 20260502192339 | 58 | 123 | 1.0 | 3.0 | 0.00 | 0.00 | 0.00 | 96 | 1017.1 |
| 20260502191839 | 58 | 123 | 1.0 | 2.0 | 0.00 | 0.00 | 0.00 | 96 | 1017.2 |
| 20260502191338 | 58 | 123 | 1.0 | 2.0 | 0.00 | 0.00 | 0.00 | 96 | 1017.1 |
| 20260502190838 | 58 | 123 | 0.0 | 2.0 | 0.00 | 0.00 | 0.00 | 96 | 1017.1 |
| 20260502190339 | 58 | 123 | 0.0 | 2.0 | 0.00 | 0.00 | 0.00 | 96 | 1017.1 |
| 20260502185839 | 58 | 123 | 1.0 | 2.0 | 0.00 | 0.00 | 0.00 | 96 | 1017.2 |
| 20260502185338 | 57 | 123 | 0.0 | 3.0 | 0.00 | 0.00 | 0.00 | 96 | 1017.3 |
| 20260502184838 | 57 | 123 | 1.0 | 3.0 | 0.00 | 0.00 | 0.00 | 96 | 1017.3 |
| 20260502184820 | 57 | 123 | 2.0 | 3.0 | 0.00 | 0.00 | 0.00 | 96 | 1017.3 |
| 20260502183838 | 57 | 124 | 0.0 | 3.0 | 0.00 | 0.00 | 0.00 | 96 | 1017.4 |
| 20260502183600 | 57 | 124 | 1.0 | 6.0 | 0.00 | 0.00 | 0.00 | 96 | 1017.4 |
| 20260502183101 | 57 | 123 | 1.0 | 6.0 | 0.00 | 0.00 | 0.00 | 96 | 1017.5 |
| 20260502182338 | 56 | 76 | 5.0 | 7.0 | 0.00 | 0.00 | 0.00 | 96 | 1017.5 |
| 20260502181838 | 56 | 82 | 5.0 | 7.0 | 0.00 | 0.00 | 0.00 | 96 | 1017.5 |
| 20260502181600 | 56 | 63 | 4.0 | 6.0 | 0.00 | 0.00 | 0.00 | 96 | 1017.4 |
| 20260502180836 | 56 | 79 | 5.0 | 6.0 | 0.00 | 0.00 | 0.00 | 96 | 1017.4 |
| 20260502180604 | 56 | 78 | 5.0 | 7.0 | 0.00 | 0.00 | 0.00 | 96 | 1017.4 |
| 20260502170332 | 56 | 62 | 6.0 | 10.0 | 0.00 | 0.00 | 0.00 | 96 | 1016.8 |
| 20260502164051 | 56 | 55 | 6.0 | 10.0 | 0.00 | 0.00 | 0.00 | 96 | 1017.1 |
| 20260502163332 | 56 | 44 | 6.0 | 9.0 | 0.00 | 0.00 | 0.00 | 96 | 1017.1 |
| 20260502162831 | 56 | 58 | 4.0 | 9.0 | 0.00 | 0.00 | 0.00 | 96 | 1017.1 |
| 20260502162331 | 56 | 61 | 6.0 | 10.0 | 0.00 | 0.00 | 0.00 | 96 | 1017.0 |
| 20260502161831 | 56 | 61 | 6.0 | 13.0 | 0.00 | 0.00 | 0.00 | 96 | 1017.0 |
| 20260502161331 | 56 | 45 | 8.0 | 13.0 | 0.00 | 0.00 | 0.00 | 96 | 1016.8 |
| 20260502161047 | 55 | 51 | 5.0 | 9.0 | 0.00 | 0.00 | 0.00 | 96 | 1016.8 |
| 20260502160331 | 55 | 34 | 7.0 | 12.0 | 0.00 | 0.00 | 0.00 | 96 | 1016.8 |
| 20260502152331 | 54 | 323 | 3.0 | 5.0 | 0.00 | 0.00 | 0.00 | 95 | 1017.2 |
| 20260502151832 | 54 | 324 | 4.0 | 5.0 | 0.00 | 0.00 | 0.00 | 95 | 1017.2 |
| 20260502151324 | 54 | 298 | 3.0 | 4.0 | 0.00 | 0.00 | 0.00 | 95 | 1017.3 |
| 20260502150822 | 54 | 314 | 4.0 | 4.0 | 0.00 | 0.00 | 0.00 | 95 | 1017.1 |
| 20260502150540 | 54 | 314 | 3.0 | 4.0 | 0.00 | 0.00 | 0.00 | 95 | 1017.1 |
| 20260502130731 | 54 | 44 | 2.0 | 6.0 | 0.00 | 0.00 | 0.00 | 94 | 1015.8 |
| 20260502130232 | 54 | 44 | 2.0 | 6.0 | 0.00 | 0.00 | 0.00 | 94 | 1015.9 |
| 20260502123730 | 54 | 42 | 1.0 | 4.0 | 0.00 | 0.00 | 0.00 | 93 | 1015.8 |
| 20260502123229 | 54 | 44 | 2.0 | 4.0 | 0.00 | 0.00 | 0.00 | 93 | 1015.7 |
| 20260502122729 | 54 | 42 | 1.0 | 6.0 | 0.00 | 0.00 | 0.00 | 93 | 1015.7 |
| 20260502122229 | 54 | 41 | 5.0 | 6.0 | 0.00 | 0.00 | 0.00 | 93 | 1015.7 |
| 20260502121729 | 54 | 25 | 4.0 | 6.0 | 0.00 | 0.00 | 0.00 | 93 | 1015.5 |
| 20260502121229 | 54 | 38 | 3.0 | 6.0 | 0.00 | 0.00 | 0.00 | 93 | 1015.5 |
| 20260502120728 | 54 | 31 | 5.0 | 6.0 | 0.00 | 0.00 | 0.00 | 93 | 1015.5 |
| 20260502120446 | 54 | 42 | 3.0 | 6.0 | 0.00 | 0.00 | 0.00 | 93 | 1015.5 |
| 20260502115455 | 54 | 0 | 5.0 | 7.0 | 0.00 | 0.00 | 0.00 | 93 | 1015.6 |
| 20260502114728 | 54 | 41 | 3.0 | 5.0 | 0.00 | 0.00 | 0.00 | 93 | 1015.5 |
| 20260502114227 | 54 | 39 | 4.0 | 5.0 | 0.00 | 0.00 | 0.00 | 93 | 1015.5 |
| 20260502113727 | 54 | 30 | 0.0 | 5.0 | 0.00 | 0.00 | 0.00 | 93 | 1015.7 |
| 20260502113227 | 54 | 28 | 1.0 | 6.0 | 0.00 | 0.00 | 0.00 | 93 | 1015.5 |
| 20260502112727 | 54 | 0 | 3.0 | 6.0 | 0.00 | 0.00 | 0.00 | 93 | 1015.5 |
| 20260502112226 | 54 | 16 | 4.0 | 6.0 | 0.00 | 0.00 | 0.00 | 93 | 1015.3 |
| 20260502111928 | 54 | 52 | 4.0 | 6.0 | 0.00 | 0.00 | 0.00 | 93 | 1015.4 |
| 20260502111916 | 54 | 48 | 4.0 | 6.0 | 0.00 | 0.00 | 0.00 | 93 | 1015.3 |
| 20260502110727 | 54 | 47 | 4.0 | 6.0 | 0.00 | 0.00 | 0.00 | 93 | 1015.3 |
| 20260502110450 | 55 | 51 | 4.0 | 6.0 | 0.00 | 0.00 | 0.00 | 93 | 1015.2 |
| 20260502105727 | 55 | 27 | 4.0 | 6.0 | 0.00 | 0.00 | 0.00 | 93 | 1015.2 |
| 20260502105226 | 55 | 42 | 4.0 | 6.0 | 0.00 | 0.00 | 0.00 | 93 | 1015.2 |
| 20260502104726 | 55 | 38 | 4.0 | 6.0 | 0.00 | 0.00 | 0.00 | 93 | 1015.2 |
| 20260502104226 | 55 | 45 | 4.0 | 5.0 | 0.00 | 0.00 | 0.00 | 94 | 1015.2 |
| 20260502103726 | 55 | 38 | 3.0 | 4.0 | 0.00 | 0.00 | 0.00 | 93 | 1015.2 |
| 20260502103226 | 55 | 30 | 0.0 | 3.0 | 0.00 | 0.00 | 0.00 | 93 | 1015.0 |
| 20260502102725 | 54 | 30 | 1.0 | 3.0 | 0.00 | 0.00 | 0.00 | 93 | 1015.0 |
| 20260502102226 | 54 | 30 | 0.0 | 0.0 | 0.00 | 0.00 | 0.00 | 93 | 1014.8 |
| 20260502101726 | 54 | 31 | 0.0 | 0.0 | 0.00 | 0.00 | 0.00 | 93 | 1014.9 |
| 20260502101226 | 55 | 31 | 0.0 | 0.0 | 0.00 | 0.00 | 0.00 | 93 | 1014.9 |
| 20260502100725 | 55 | 31 | 0.0 | 0.0 | 0.00 | 0.00 | 0.00 | 92 | 1014.8 |
| 20260502100451 | 55 | 31 | 0.0 | 3.0 | 0.00 | 0.00 | 0.00 | 93 | 1014.8 |
| 20260502091231 | 54 | 305 | 2.0 | 4.0 | 0.00 | 0.00 | 0.00 | 91 | 1014.9 |
| 20260502090725 | 54 | 357 | 2.0 | 3.0 | 0.00 | 0.00 | 0.00 | 91 | 1015.0 |
| 20260502090225 | 54 | 348 | 1.0 | 3.0 | 0.00 | 0.00 | 0.00 | 91 | 1015.1 |
| 20260502071222 | 57 | 62 | 1.0 | 2.0 | 0.00 | 0.00 | 0.00 | 88 | 1015.0 |
| 20260502070724 | 57 | 62 | 1.0 | 2.0 | 0.00 | 0.00 | 0.00 | 88 | 1015.0 |
| 20260502070222 | 57 | 62 | 0.0 | 3.0 | 0.00 | 0.00 | 0.00 | 88 | 1015.0 |
| 20260502065946 | 57 | 62 | 2.0 | 3.0 | 0.00 | 0.00 | 0.00 | 88 | 1015.1 |
| 20260502065443 | 57 | 62 | 0.0 | 2.0 | 0.00 | 0.00 | 0.00 | 87 | 1015.1 |
| 20260502065203 | 57 | 62 | 0.0 | 2.0 | 0.00 | 0.00 | 0.00 | 87 | 1015.0 |
| 20260502064221 | 58 | 62 | 0.0 | 2.0 | 0.00 | 0.00 | 0.00 | 86 | 1015.2 |
| 20260502063721 | 58 | 62 | 1.0 | 2.0 | 0.00 | 0.00 | 0.00 | 85 | 1015.1 |
| 20260502063443 | 58 | 62 | 0.0 | 2.0 | 0.00 | 0.00 | 0.00 | 85 | 1015.1 |
| 20260502062722 | 58 | 62 | 0.0 | 3.0 | 0.00 | 0.00 | 0.00 | 85 | 1015.2 |
| 20260502062220 | 58 | 62 | 2.0 | 4.0 | 0.00 | 0.00 | 0.00 | 84 | 1015.1 |
| 20260502061721 | 59 | 62 | 3.0 | 4.0 | 0.00 | 0.00 | 0.00 | 84 | 1015.0 |
| 20260502061220 | 59 | 62 | 2.0 | 4.0 | 0.00 | 0.00 | 0.00 | 83 | 1015.0 |
| 20260502060721 | 60 | 55 | 2.0 | 3.0 | 0.00 | 0.00 | 0.00 | 83 | 1015.1 |
| 20260502060440 | 60 | 54 | 2.0 | 2.0 | 0.00 | 0.00 | 0.00 | 83 | 1015.0 |
| 20260502055721 | 60 | 54 | 1.0 | 2.0 | 0.00 | 0.00 | 0.00 | 83 | 1015.0 |
| 20260502055220 | 60 | 54 | 1.0 | 2.0 | 0.00 | 0.00 | 0.00 | 83 | 1015.0 |
| 20260502054720 | 60 | 54 | 0.0 | 0.0 | 0.00 | 0.00 | 0.00 | 83 | 1014.9 |
| 20260502054221 | 61 | 54 | 0.0 | 0.0 | 0.00 | 0.00 | 0.00 | 83 | 1014.9 |
| 20260502054211 | 61 | 54 | 0.0 | 0.0 | 0.00 | 0.00 | 0.00 | 82 | 1014.9 |
| 20260502053219 | 61 | 54 | 0.0 | 0.0 | 0.00 | 0.00 | 0.00 | 82 | 1014.8 |
| 20260502052719 | 61 | 54 | 0.0 | 0.0 | 0.00 | 0.00 | 0.00 | 83 | 1014.8 |
| 20260502052219 | 61 | 54 | 0.0 | 0.0 | 0.00 | 0.00 | 0.00 | 83 | 1014.8 |
| 20260502051719 | 61 | 54 | 0.0 | 2.0 | 0.00 | 0.00 | 0.00 | 83 | 1014.8 |
| 20260502051221 | 61 | 54 | 1.0 | 2.0 | 0.00 | 0.00 | 0.00 | 83 | 1014.8 |
| 20260502050719 | 61 | 54 | 1.0 | 3.0 | 0.00 | 0.00 | 0.00 | 83 | 1014.9 |
| 20260502050219 | 61 | 54 | 1.0 | 3.0 | 0.00 | 0.00 | 0.00 | 84 | 1014.9 |
| 20260502045719 | 61 | 54 | 1.0 | 3.0 | 0.00 | 0.00 | 0.00 | 84 | 1014.9 |
| 20260502045219 | 60 | 54 | 0.0 | 1.0 | 0.00 | 0.00 | 0.00 | 84 | 1015.0 |
| 20260502044718 | 60 | 54 | 0.0 | 1.0 | 0.00 | 0.00 | 0.00 | 84 | 1015.1 |
| 20260502044219 | 60 | 54 | 0.0 | 2.0 | 0.00 | 0.00 | 0.00 | 84 | 1015.0 |
| 20260502043718 | 60 | 54 | 0.0 | 2.0 | 0.00 | 0.00 | 0.00 | 85 | 1015.1 |
| 20260502043220 | 60 | 54 | 0.0 | 2.0 | 0.00 | 0.00 | 0.00 | 84 | 1015.1 |
| 20260502042719 | 60 | 54 | 0.0 | 3.0 | 0.00 | 0.00 | 0.00 | 84 | 1015.0 |
| 20260502042218 | 60 | 54 | 1.0 | 3.0 | 0.00 | 0.00 | 0.00 | 84 | 1015.0 |
| 20260502041718 | 60 | 55 | 0.0 | 3.0 | 0.00 | 0.00 | 0.00 | 84 | 1014.9 |
| 20260502041218 | 60 | 55 | 1.0 | 2.0 | 0.00 | 0.00 | 0.00 | 84 | 1014.9 |